Location: Coupvray
(48.8929°N, 2.7967°E)
Time: 21:55:47
(UTC+00:00)

Cosmos 724 - Pass Details

Date: 30 October 2020
Orbit: 851 x 943 km, 65.6° (Epoch: 01 December)

Event Time Altitude Azimuth Distance (km) Brightness Sun altitude
Exits shadow 03:25:31 15° 347° (NNW) 2,269 6.4 -31.1°
Maximum altitude 03:27:13 17° 7° (N) 2,179 6.5 -30.9°
Drops below altitude 10° 03:31:01 10° 45° (NE) 2,636 7.4 -30.2°
Sets 03:34:39 0° 66° (ENE) 3,593 8.6 -29.7°
